Regional Weather Roundup
Issued by NWS

Home | Current Version | Previous Version | Text Only | Print | Product List | Glossary On
Versions: 1 2 3 4 5 6 7 8 9 10 11 12 13 14 15 16 17 18 19 20 21 22 23 24 25 26 27 28 29 30 31 32 33 34 35 36 37 38 39 40 41 42 43 44 45 46 47 48 49 50
000
ASUS43 KBIS 292202
RWRND

NORTH DAKOTA REGIONAL WEATHER ROUNDUP
NATIONAL WEATHER SERVICE BISMARCK ND
500 PM CDT SAT APR 29 2017

NOTE: "FAIR" INDICATES FEW OR NO CLOUDS BELOW 12,000 FEET WITH NO
SIGNIFICANT WEATHER AND/OR OBSTRUCTIONS TO VISIBILITY.


NDZ001>003-009>011-017-292300-
NORTHWEST NORTH DAKOTA

CITY           SKY/WX    TMP DP  RH WIND       PRES   REMARKS
WILLISTON      FAIR      63  32  31 W7        30.17F
MINOT          CLOUDY    63  26  24 SW13      30.18F
MINOT AFB      CLOUDY    64  29  26 SW15      30.17F
$$

NDZ018>021-031>035-040>046-292300-
SOUTHWEST NORTH DAKOTA

CITY           SKY/WX    TMP DP  RH WIND       PRES   REMARKS
BISMARCK       FAIR      62  18  18 E5        30.23F
DICKINSON      FAIR      59  17  19 CALM      30.17F
GARRISON         N/A     61  22  22 S9        30.19F
HETTINGER ARPT SUNNY     57  19  22 NW5       30.22F
$$

NDZ004>008-012>016-024-026-027-054-292300-
NORTHEAST NORTH DAKOTA

CITY           SKY/WX    TMP DP  RH WIND       PRES   REMARKS
GRAND FORKS    MOSUNNY   60  24  25 S5        30.29F
GRND FRKS AFB  SUNNY     59  20  22 SE6       30.29F
DEVILS LAKE    FAIR      59  16  18 SE7       30.26F
$$

NDZ022-023-025-028>030-036>039-047>053-292300-
SOUTHEAST NORTH DAKOTA

CITY           SKY/WX    TMP DP  RH WIND       PRES   REMARKS
FARGO          SUNNY     61  19  19 N6        30.27F
JAMESTOWN      FAIR      59  20  22 SE6       30.24F
$$




USA.gov is the U.S. government's official web portal to all federal, state and local government web resources and services.